SL-8 DEB, 1549

Orbit data source: Space-Track

SL-8 DEB, 1549 is space debris in LEO originally from a launch on Mon, 15 Mar 1965 UTC launched from the Tyuratam Missile And Space Complex (TTMTR). Debris objects in space refer to the collection of defunct objects orbiting the Earth. Examples of debris include non-operational satellites, rocket bodies, and fragments generated from explosions, collisions, or faulty payload assembly.

Loading next visibility...
Identifier
1549, 1965-020CV
Orbit
LEO
Country
Flag of CISCIS
Related business
Manufacturer
Unknown
Mission
Spacecraft
Bus & Motor
Unknown
Mass
Unknown
Launch date (UTC)
1965-03-15 (61 years ago)
Launch vehicle
Unknown
Launch site
Tyuratam Missile And Space Complex (TTMTR)
Object type
Payload
Rocket body
Debris
Shape & HBR
Unknown
Radar Cross Section
Medium (>0.1 m² and <1 m²)

Expand to show TLE details & history
Last TLE update: 8 hours ago

TLE from 8 hours ago
0 SL-8 DEB
1 01549U 65020CV  25259.18182240 -.00000352  00000-0 -32361-3 0  9991
2 01549  56.1652 331.1596 0843227  84.9174 284.7330 12.64261606780289
Epoch: 2025-09-16T04:21Z
TLE epoch observation values (Epoch: 2025-09-16T04:21:49.455Z)
Latitude
-0.00003°
Longitude
-89.67229°
Altitude
1,292.793 km
Speed
7.263 km/s
True Right ascension
22h 04m 38s
True Declination
0° 00' 00"
Sunlit
Object was in full shadow at epoch
Visualization orbit readout
Latitude
Unknown
Longitude
Unknown
Altitude
Unknown
Speed
Unknown
Apparent Right ascension
Unknown
Apparent Declination
Unknown
Sunlit
N/A
Visualization observer readout
Local Sidereal Time
04:35:14
Azimuth
Unknown
Elevation
Unknown
Doppler factor
Unknown
Orbital elements
Apogee altitude
2,061.521 km
Perigee altitude
748.896 km
Semi-major axis
7,783.346 km
Eccentricity
0.08432
Inclination
56.1652°
RAAN
331.1596°
Arg. of periapsis
84.9174°
True anomaly
275.17558°
Mean anomaly
284.733°
Eccentric anomaly
279.97469°
Mean motion
3.16078 °/min
Orbital period
113.9 mins
BSTAR
-0.00032361
Loading maneuver chart data...
Computing Atmospheric mass density...
Loading historical data...
Loading historical data...
Loading historical data...
Loading historical data...
Loading historical data...
Loading historical data...
Loading historical data...

Documentation

Showing up to 5 results
|